{"data":{"norad_id":57917,"intl_designator":"2023-147E","name":"STARLINK-30501","alt_names":[],"object_type":"PAYLOAD","status":"ACTIVE","operator":null,"country":"US","launch_date":"2023-09-24","launch_site_code":"AFETR","launch_vehicle":null,"mission":null,"orbit_class":"UNKNOWN","rcs_meters":null,"size_class":null,"mass_kg":null,"dimensions":null,"purposes":["comms"],"wikipedia_slug":null,"has_3d_model":false,"image_url":null,"decayed_at":null,"tle_current":{"epoch":"2026-05-25T03:38:45.392064Z","epoch_age_seconds":61932,"freshness":"FRESH","line1":"1 57917U 23147E   26145.15191426 -.00213697  00000+0 -80019-2 0  9992","line2":"2 57917  43.0081 253.2431 0002791 261.3944  98.6592 15.27493998148318","mean_motion":15.27493998,"eccentricity":0.0002791,"inclination_deg":43.0081,"raan_deg":253.2431,"arg_perigee_deg":261.3944,"mean_anomaly_deg":98.6592,"bstar":-0.0080019,"rev_number":14831,"period_min":94.272056183883,"perigee_km":481.39160013237,"apogee_km":485.2216579661,"semimajor_km":6861.4436290492,"source":"CELESTRAK","updated_at":"2026-05-25T13:38:18.456987Z"}}}